When you browse on this site, cookies collect data to enhance your experience and personalize the content and advertising you see.
Visit our Privacy Policy to learn more. By continuing to use the site, you agree to this use of cookies and data.
  • In Romania
  • List of Countries
  • For 7 days
  • Water Temperature
  • Weather Map
  • Weather Widgets
  • user-avatar
    Login

    Hourly Weather La Massana

    Today, 23 January, Thursday

    Time Temperature Precipitation Wind Pressure Humidity
    00:00 +1°C° 0 mm 1 mps 610 mmHg 98%
    01:00 +1°C° 3.1 mm 1 mps 609 mmHg 98%
    02:00 -1°C° 3.1 mm 2 mps 609 mmHg 98%
    03:00 -1°C° 3.1 mm 2 mps 608 mmHg 98%
    04:00 -1°C° 2.1 mm 2 mps 608 mmHg 98%
    05:00 -1°C° 2.1 mm 2 mps 608 mmHg 98%
    06:00 -1°C° 2.1 mm 2 mps 608 mmHg 98%
    07:00 -1°C° 4.3 mm 2 mps 608 mmHg 98%
    08:00 -1°C° 4.3 mm 2 mps 609 mmHg 98%
    09:00 -1°C° 4.3 mm 2 mps 609 mmHg 98%
    10:00 -1°C° 1.5 mm 2 mps 609 mmHg 97%
    11:00 -1°C° 1.5 mm 2 mps 609 mmHg 96%
    12:00 -1°C° 1.5 mm 2 mps 609 mmHg 95%
    13:00 -1°C° 1.6 mm 2 mps 609 mmHg 95%
    14:00 -1°C° 1.6 mm 2 mps 609 mmHg 95%
    15:00 -1°C° 1.6 mm 2 mps 609 mmHg 95%
    16:00 -2°C° 0 mm 2 mps 609 mmHg 95%
    17:00 -3°C° 0 mm 2 mps 609 mmHg 94%
    18:00 -4°C° 0 mm 2 mps 609 mmHg 94%
    19:00 -4°C° 0 mm 2 mps 609 mmHg 91%
    20:00 -5°C° 0 mm 2 mps 608 mmHg 89%
    21:00 -6°C° 0 mm 2 mps 608 mmHg 86%
    22:00 -6°C° 0 mm 2 mps 608 mmHg 85%
    23:00 -6°C° 0 mm 2 mps 608 mmHg 84%

    Tomorrow, 24 January, Friday

    Time Temperature Precipitation Wind Pressure Humidity
    00:00 -6°C° 0 mm 2 mps 608 mmHg 84%
    01:00 -6°C° 0 mm 2 mps 608 mmHg 84%
    02:00 -6°C° 0 mm 2 mps 608 mmHg 85%
    03:00 -6°C° 0 mm 2 mps 608 mmHg 85%
    04:00 -6°C° 0 mm 2 mps 607 mmHg 85%
    05:00 -6°C° 0 mm 2 mps 607 mmHg 84%
    06:00 -6°C° 0 mm 2 mps 607 mmHg 84%
    07:00 -3°C° 0 mm 1 mps 608 mmHg 84%
    08:00 -2°C° 0 mm 1 mps 609 mmHg 84%
    09:00 -1°C° 0 mm 1 mps 609 mmHg 83%
    10:00 0°C° 0 mm 1 mps 610 mmHg 85%
    11:00 +1°C° 0 mm 1 mps 610 mmHg 87%
    12:00 +2°C° 0 mm 1 mps 610 mmHg 89%
    13:00 +2°C° 0 mm 1 mps 610 mmHg 90%
    14:00 +2°C° 0 mm 1 mps 609 mmHg 91%
    15:00 +2°C° 0 mm 1 mps 609 mmHg 92%
    16:00 0°C° 0 mm 1 mps 608 mmHg 91%
    17:00 -1°C° 0 mm 1 mps 608 mmHg 90%
    18:00 -3°C° 0 mm 1 mps 607 mmHg 90%
    19:00 -3°C° 0 mm 1 mps 607 mmHg 88%
    20:00 -5°C° 0 mm 2 mps 608 mmHg 87%
    21:00 -5°C° 0 mm 2 mps 608 mmHg 86%
    22:00 -5°C° 0 mm 2 mps 608 mmHg 85%
    23:00 -5°C° 0 mm 2 mps 608 mmHg 85%

    Day after tomorrow, 25 January, Saturday

    Time Temperature Precipitation Wind Pressure Humidity
    00:00 -5°C° 0 mm 2 mps 608 mmHg 84%
    01:00 -5°C° 0 mm 2 mps 607 mmHg 84%
    02:00 -4°C° 0 mm 2 mps 607 mmHg 84%
    03:00 -4°C° 0 mm 2 mps 607 mmHg 85%
    04:00 -4°C° 0 mm 2 mps 607 mmHg 86%
    05:00 -4°C° 0 mm 2 mps 607 mmHg 87%
    06:00 -3°C° 0 mm 1 mps 607 mmHg 88%
    07:00 -2°C° 0 mm 1 mps 607 mmHg 88%
    08:00 -1°C° 0 mm 1 mps 608 mmHg 88%
    09:00 0°C° 0 mm 1 mps 608 mmHg 88%
    10:00 -2°C° 0 mm 2 mps 608 mmHg 89%
    11:00 -1°C° 0 mm 2 mps 608 mmHg 90%
    12:00 +1°C° 0 mm 2 mps 608 mmHg 90%
    13:00 -1°C° 0.5 mm 2 mps 608 mmHg 92%
    14:00 -1°C° 0.5 mm 2 mps 607 mmHg 93%
    15:00 -1°C° 0.5 mm 2 mps 607 mmHg 95%
    16:00 +1°C° 0.2 mm 1 mps 607 mmHg 95%
    17:00 0°C° 0.2 mm 1 mps 606 mmHg 95%
    18:00 0°C° 0.2 mm 1 mps 606 mmHg 96%
    19:00 -1°C° 0 mm 1 mps 606 mmHg 95%
    20:00 -1°C° 0 mm 1 mps 606 mmHg 94%
    21:00 -2°C° 0 mm 1 mps 606 mmHg 93%
    22:00 -2°C° 0 mm 1 mps 606 mmHg 93%
    23:00 -2°C° 0 mm 1 mps 606 mmHg 93%

    26 January, Sunday

    Time Temperature Precipitation Wind Pressure Humidity
    00:00 -2°C° 0 mm 1 mps 606 mmHg 93%
    01:00 -2°C° 0 mm 1 mps 606 mmHg 93%
    02:00 -2°C° 0 mm 1 mps 606 mmHg 93%
    03:00 -2°C° 0 mm 1 mps 606 mmHg 93%
    04:00 -3°C° 0 mm 1 mps 606 mmHg 93%
    05:00 -3°C° 0 mm 1 mps 606 mmHg 93%
    06:00 -3°C° 0 mm 1 mps 606 mmHg 93%
    07:00 -2°C° 0 mm 1 mps 607 mmHg 93%
    08:00 -2°C° 0 mm 1 mps 608 mmHg 93%
    09:00 -1°C° 0 mm 1 mps 609 mmHg 93%
    10:00 0°C° 0 mm 1 mps 609 mmHg 92%
    11:00 +1°C° 0 mm 1 mps 609 mmHg 91%
    12:00 +1°C° 0 mm 0 mps 610 mmHg 91%
    13:00 +1°C° 0 mm 0 mps 610 mmHg 91%
    14:00 +1°C° 0 mm 0 mps 610 mmHg 91%
    15:00 0°C° 0 mm 0 mps 610 mmHg 91%
    16:00 0°C° 0 mm 1 mps 609 mmHg 91%
    17:00 -1°C° 0 mm 1 mps 609 mmHg 91%
    18:00 -3°C° 0 mm 1 mps 609 mmHg 91%
    19:00 -3°C° 0 mm 1 mps 609 mmHg 88%
    20:00 -3°C° 0 mm 1 mps 609 mmHg 86%
    21:00 -4°C° 0 mm 1 mps 609 mmHg 83%
    22:00 -4°C° 0 mm 1 mps 609 mmHg 82%
    23:00 -4°C° 0 mm 1 mps 609 mmHg 81%

    27 January, Monday

    Time Temperature Precipitation Wind Pressure Humidity
    00:00 -4°C° 0 mm 1 mps 609 mmHg 80%
    01:00 -4°C° 0 mm 1 mps 609 mmHg 77%
    02:00 -4°C° 0 mm 1 mps 609 mmHg 75%
    03:00 -4°C° 0 mm 1 mps 609 mmHg 73%
    04:00 -4°C° 0 mm 1 mps 609 mmHg 70%
    05:00 -4°C° 0 mm 1 mps 609 mmHg 67%
    06:00 -4°C° 0 mm 1 mps 609 mmHg 65%
    07:00 -2°C° 0 mm 1 mps 610 mmHg 66%
    08:00 -1°C° 0 mm 1 mps 610 mmHg 68%
    09:00 0°C° 0 mm 1 mps 611 mmHg 70%
    10:00 -1°C° 0 mm 2 mps 611 mmHg 73%
    11:00 +1°C° 0 mm 2 mps 611 mmHg 77%
    12:00 +2°C° 0 mm 2 mps 611 mmHg 80%
    13:00 +2°C° 0 mm 2 mps 611 mmHg 81%
    14:00 +2°C° 0 mm 2 mps 610 mmHg 83%
    15:00 +1°C° 0 mm 2 mps 610 mmHg 84%
    16:00 -1°C° 0 mm 2 mps 609 mmHg 84%
    17:00 -2°C° 0 mm 2 mps 608 mmHg 83%
    18:00 -4°C° 0 mm 2 mps 608 mmHg 83%
    19:00 -4°C° 0 mm 2 mps 608 mmHg 81%
    20:00 -4°C° 0 mm 2 mps 608 mmHg 80%
    21:00 -5°C° 0 mm 2 mps 608 mmHg 79%
    22:00 -5°C° 0 mm 2 mps 608 mmHg 75%
    23:00 -4°C° 0 mm 2 mps 608 mmHg 72%

    28 January, Tuesday

    Time Temperature Precipitation Wind Pressure Humidity
    00:00 -4°C° 0 mm 2 mps 608 mmHg 69%
    01:00 -4°C° 0 mm 2 mps 607 mmHg 68%
    02:00 -4°C° 0 mm 2 mps 607 mmHg 67%
    03:00 -4°C° 0 mm 2 mps 607 mmHg 67%
    04:00 -4°C° 0 mm 2 mps 608 mmHg 70%
    05:00 -1°C° 0 mm 1 mps 608 mmHg 73%
    06:00 -1°C° 0 mm 1 mps 608 mmHg 77%
    07:00 0°C° 0 mm 1 mps 609 mmHg 79%
    08:00 +1°C° 0 mm 1 mps 610 mmHg 82%
    09:00 +1°C° 0 mm 0 mps 610 mmHg 85%
    10:00 +3°C° 0 mm 1 mps 610 mmHg 85%
    11:00 +4°C° 0 mm 1 mps 611 mmHg 85%
    12:00 +4°C° 0 mm 1 mps 611 mmHg 85%
    13:00 +4°C° 0 mm 1 mps 610 mmHg 87%
    14:00 +4°C° 0 mm 1 mps 610 mmHg 88%
    15:00 +4°C° 0 mm 1 mps 610 mmHg 90%
    16:00 +3°C° 0 mm 1 mps 609 mmHg 91%
    17:00 +2°C° 0 mm 1 mps 609 mmHg 92%
    18:00 +1°C° 0 mm 1 mps 609 mmHg 94%
    19:00 0°C° 0 mm 1 mps 609 mmHg 94%
    20:00 0°C° 0 mm 1 mps 609 mmHg 93%
    21:00 0°C° 0 mm 1 mps 609 mmHg 93%
    22:00 0°C° 0 mm 1 mps 609 mmHg 92%
    23:00 0°C° 0 mm 1 mps 608 mmHg 90%
    Show more